Mosby, MO

10:09 PM CDT on October 23, 2019 (GMT -0500)
Clay County Regional

Weather History for KGPH - August, 2019

Change the Weather History Date:

Saturday, August 24, 2019

  Actual Average (KMKC) Record (KMKC)
Temperature  
Mean Temperature 70 °F -  
Max Temperature 77 °F 86 °F 100 °F (2003)
Min Temperature 64 °F 68 °F 55 °F (2015)
Cooling Degree Days 6    
Growing Degree Days 20 (Base 50)    
Moisture  
Dew Point 61 °F    
Average Humidity 72    
Maximum Humidity 88    
Minimum Humidity 53    
Precipitation  
Precipitation 0.00 in - - ()
Sea Level Pressure  
Sea Level Pressure 30.09 in    
Wind  
Wind Speed 3 mph ()    
Max Wind Speed 15 mph    
Max Gust Speed 21 mph    
Visibility 10.0 miles    
Events      
Averages and records for this station are not official NWS values.
T = Trace of Precipitation, MM = Missing Value Source: Averaged Metar Reports

Daily Weather History Graph

Daily Weather History Graph

Search for Another Location

Airport or City:

Astronomy

Aug. 24, 2019 Rise Set
Actual Time 6:38 AM CDT 8:00 PM CDT
Civil Twilight 6:10 AM CDT 8:28 PM CDT
Nautical Twilight 5:36 AM CDT 9:01 PM CDT
Astronomical Twilight 5:01 AM CDT 9:36 PM CDT
Moon 12:32 AM CDT 3:16 PM CDT
Length of Visible Light 14h 18m
Length of Day
13h 22m
Last Quarter, 39% of the Moon is Illuminated
Aug 24
Last Quarter
Aug 30
New
Sep 5
First Quarter
Sep 13
Full
Sep 21
Last Quarter

Hourly Weather History & Observations

Time (CDT) Temp. Dew Point Humidity Pressure Visibility Wind Dir Wind Speed Gust Speed Precip Events Conditions
12:15 AM 71.6 °F 62.6 °F 73% 30.08 in 10.0 mi Calm Calm - N/A   Clear
1:15 AM 69.8 °F 62.6 °F 78% 30.11 in 10.0 mi Calm Calm - N/A   Mostly Cloudy
1:35 AM 69.8 °F 62.6 °F 78% 30.12 in 10.0 mi Calm Calm - N/A   Mostly Cloudy
1:55 AM 69.8 °F 62.6 °F 78% 30.12 in 10.0 mi Calm Calm - N/A   Scattered Clouds
2:15 AM 68.0 °F 62.6 °F 83% 30.12 in 10.0 mi Calm Calm - N/A   Clear
2:35 AM 68.0 °F 62.6 °F 83% 30.12 in 10.0 mi Calm Calm - N/A   Clear
2:55 AM 68.0 °F 62.6 °F 83% 30.13 in 10.0 mi Calm Calm - N/A   Clear
3:15 AM 68.0 °F 62.6 °F 83% 30.12 in 10.0 mi Calm Calm - N/A   Clear
3:55 AM 68.0 °F 62.6 °F 83% 30.12 in 10.0 mi Calm Calm - N/A   Clear
4:15 AM 68.0 °F 62.6 °F 83% 30.11 in 10.0 mi Calm Calm - N/A   Clear
4:55 AM 66.2 °F 60.8 °F 83% 30.10 in 10.0 mi Calm Calm - N/A   Clear
5:15 AM 66.2 °F 60.8 °F 83% 30.11 in 10.0 mi Calm Calm - N/A   Clear
5:35 AM 64.4 °F 60.8 °F 88% 30.11 in 10.0 mi Calm Calm - N/A   Clear
5:55 AM 64.4 °F 60.8 °F 88% 30.11 in 10.0 mi ESE 6.9 mph - N/A   Clear
6:35 AM 64.4 °F 59.0 °F 83% 30.13 in 10.0 mi Calm Calm - N/A   Overcast
6:55 AM 64.4 °F 59.0 °F 83% 30.13 in 10.0 mi Calm Calm - N/A   Overcast
7:15 AM 64.4 °F 59.0 °F 83% 30.12 in 10.0 mi ESE 3.5 mph - N/A   Scattered Clouds
7:35 AM 64.4 °F 59.0 °F 83% 30.12 in 10.0 mi Calm Calm - N/A   Scattered Clouds
7:55 AM 64.4 °F 59.0 °F 83% 30.12 in 10.0 mi Calm Calm - N/A   Scattered Clouds
8:15 AM 64.4 °F 59.0 °F 83% 30.12 in 10.0 mi Calm Calm - N/A   Clear
8:55 AM 66.2 °F 59.0 °F 78% 30.13 in 10.0 mi East 6.9 mph - N/A   Mostly Cloudy
9:15 AM 68.0 °F 60.8 °F 78% 30.13 in 10.0 mi East 6.9 mph - N/A   Scattered Clouds
9:35 AM 68.0 °F 60.8 °F 78% 30.12 in 10.0 mi ESE 8.1 mph - N/A   Scattered Clouds
11:35 AM 71.6 °F 60.8 °F 69% 30.11 in 10.0 mi ESE 15.0 mph 19.6 mph N/A   Scattered Clouds
11:55 AM 71.6 °F 60.8 °F 69% 30.11 in 10.0 mi East 13.8 mph 18.4 mph N/A   Mostly Cloudy
12:15 PM 73.4 °F 60.8 °F 65% 30.11 in 10.0 mi ESE 12.7 mph 16.1 mph N/A   Scattered Clouds
12:35 PM 73.4 °F 60.8 °F 65% 30.10 in 10.0 mi ESE 11.5 mph 16.1 mph N/A   Scattered Clouds
12:55 PM 73.4 °F 59.0 °F 61% 30.10 in 10.0 mi ESE 10.4 mph 17.3 mph N/A   Mostly Cloudy
1:15 PM 75.2 °F 60.8 °F 61% 30.08 in 10.0 mi SE 9.2 mph 18.4 mph N/A   Scattered Clouds
1:35 PM 75.2 °F 59.0 °F 57% 30.07 in 10.0 mi ESE 10.4 mph 20.7 mph N/A   Scattered Clouds
1:55 PM 75.2 °F 57.2 °F 53% 30.07 in 10.0 mi SE 10.4 mph 20.7 mph N/A   Scattered Clouds
2:15 PM 77.0 °F 59.0 °F 54% 30.07 in 10.0 mi SE 8.1 mph 17.3 mph N/A   Scattered Clouds
2:35 PM 75.2 °F 59.0 °F 57% 30.08 in 10.0 mi SE 11.5 mph 17.3 mph N/A   Mostly Cloudy
2:55 PM 75.2 °F 59.0 °F 57% 30.07 in 10.0 mi ESE 10.4 mph - N/A   Overcast
3:15 PM 75.2 °F 59.0 °F 57% 30.07 in 10.0 mi ESE 10.4 mph 16.1 mph N/A   Overcast
3:55 PM 75.2 °F 59.0 °F 57% 30.05 in 10.0 mi ESE 12.7 mph 18.4 mph N/A   Scattered Clouds
4:15 PM 73.4 °F 59.0 °F 61% 30.06 in 10.0 mi ESE 9.2 mph - N/A   Mostly Cloudy
4:35 PM 73.4 °F 59.0 °F 61% 30.05 in 10.0 mi SE 6.9 mph - N/A   Overcast
4:55 PM 75.2 °F 60.8 °F 61% 30.05 in 10.0 mi ESE 10.4 mph - N/A   Overcast
5:15 PM 73.4 °F 60.8 °F 65% 30.05 in 10.0 mi ESE 10.4 mph - N/A   Overcast
5:55 PM 73.4 °F 60.8 °F 65% 30.05 in 10.0 mi ESE 4.6 mph - N/A   Overcast
6:15 PM 73.4 °F 60.8 °F 65% 30.05 in 10.0 mi ESE 3.5 mph - N/A   Overcast
6:35 PM 73.4 °F 60.8 °F 65% 30.05 in 10.0 mi East 8.1 mph - N/A   Mostly Cloudy
6:55 PM 73.4 °F 60.8 °F 65% 30.05 in 10.0 mi Calm Calm - N/A   Mostly Cloudy
8:15 PM 71.6 °F 60.8 °F 69% 30.04 in 10.0 mi East 5.8 mph - N/A   Overcast
8:35 PM 71.6 °F 60.8 °F 69% 30.04 in 10.0 mi Calm Calm - N/A   Overcast
8:55 PM 71.6 °F 60.8 °F 69% 30.05 in 10.0 mi Calm Calm - N/A   Overcast
9:55 PM 69.8 °F 60.8 °F 73% 30.05 in 10.0 mi Calm Calm - N/A   Overcast
10:15 PM 69.8 °F 60.8 °F 73% 30.05 in 10.0 mi Calm Calm - N/A   Overcast
10:35 PM 69.8 °F 60.8 °F 73% 30.05 in 10.0 mi Calm Calm - N/A   Overcast
10:55 PM 69.8 °F 60.8 °F 73% 30.05 in 10.0 mi Calm Calm - N/A   Overcast
11:35 PM 69.8 °F 60.8 °F 73% 30.05 in 10.0 mi Calm Calm - N/A   Overcast
11:55 PM 69.8 °F 60.8 °F 73% 30.05 in 10.0 mi Calm Calm - N/A   Overcast